| time (UTC) | temp F | wind direction | speed MPH | gust MPH | rain 1hr in | rain 24hr in | rain mn in | humidity % | barometer mb |
| 20260509213759 | 66 | 317 | 0.0 | 8.0 | 0.00 | 0.03 | 0.00 | 45 | 1019.2 |
| 20260509213259 | 66 | 171 | 0.0 | 8.0 | 0.00 | 0.03 | 0.00 | 42 | 1019.2 |
| 20260509213012 | 66 | 280 | 0.0 | 8.0 | 0.00 | 0.03 | 0.00 | 43 | 1019.3 |
| 20260509212257 | 67 | 128 | 1.0 | 5.0 | 0.00 | 0.03 | 0.00 | 41 | 1019.3 |
| 20260509211742 | 67 | 149 | 1.0 | 7.0 | 0.00 | 0.03 | 0.00 | 41 | 1019.3 |
| 20260509211232 | 67 | 201 | 0.0 | 8.0 | 0.00 | 0.03 | 0.00 | 41 | 1019.3 |
| 20260509210956 | 67 | 180 | 4.0 | 10.0 | 0.00 | 0.03 | 0.00 | 42 | 1019.4 |
| 20260509210707 | 67 | 154 | 2.0 | 10.0 | 0.00 | 0.03 | 0.00 | 41 | 1019.4 |
| 20260509205725 | 67 | 196 | 2.0 | 7.0 | 0.00 | 0.03 | 0.00 | 41 | 1019.4 |
| 20260509205214 | 67 | 202 | 0.0 | 7.0 | 0.00 | 0.03 | 0.00 | 44 | 1019.3 |
| 20260509204714 | 67 | 47 | 2.0 | 8.0 | 0.00 | 0.03 | 0.00 | 41 | 1019.3 |
| 20260509204216 | 67 | 348 | 2.0 | 8.0 | 0.00 | 0.03 | 0.00 | 44 | 1019.2 |
| 20260509203710 | 67 | 318 | 2.0 | 8.0 | 0.00 | 0.03 | 0.00 | 42 | 1019.3 |
| 20260509203210 | 67 | 317 | 1.0 | 8.0 | 0.00 | 0.03 | 0.00 | 45 | 1019.4 |
| 20260509202706 | 66 | 84 | 0.0 | 6.0 | 0.00 | 0.03 | 0.00 | 47 | 1019.3 |
| 20260509202206 | 65 | 103 | 0.0 | 6.0 | 0.00 | 0.03 | 0.00 | 45 | 1019.3 |
| 20260509201706 | 65 | 192 | 0.0 | 11.0 | 0.00 | 0.03 | 0.00 | 45 | 1019.4 |
| 20260509201206 | 65 | 130 | 0.0 | 11.0 | 0.00 | 0.03 | 0.00 | 43 | 1019.4 |
| 20260509200706 | 66 | 348 | 2.0 | 10.0 | 0.00 | 0.03 | 0.00 | 43 | 1019.4 |
| 20260509200207 | 66 | 217 | 3.0 | 9.0 | 0.00 | 0.03 | 0.00 | 43 | 1019.3 |
| 20260509195706 | 67 | 314 | 1.0 | 8.0 | 0.00 | 0.03 | 0.00 | 44 | 1019.4 |
| 20260509195202 | 67 | 211 | 1.0 | 8.0 | 0.00 | 0.03 | 0.00 | 46 | 1019.4 |
| 20260509194656 | 67 | 318 | 2.0 | 5.0 | 0.00 | 0.03 | 0.00 | 44 | 1019.4 |
| 20260509194200 | 66 | 175 | 1.0 | 5.0 | 0.00 | 0.03 | 0.00 | 45 | 1019.4 |
| 20260509193657 | 66 | 0 | 1.0 | 10.0 | 0.00 | 0.03 | 0.00 | 45 | 1019.4 |
| 20260509193158 | 66 | 51 | 0.0 | 10.0 | 0.00 | 0.03 | 0.00 | 49 | 1019.4 |
| 20260509192657 | 65 | 184 | 1.0 | 7.0 | 0.00 | 0.03 | 0.00 | 44 | 1019.4 |
| 20260509192153 | 65 | 321 | 1.0 | 4.0 | 0.00 | 0.03 | 0.00 | 44 | 1019.4 |
| 20260509191653 | 65 | 303 | 1.0 | 8.0 | 0.00 | 0.03 | 0.00 | 46 | 1019.4 |
| 20260509191153 | 65 | 0 | 1.0 | 9.0 | 0.00 | 0.03 | 0.00 | 49 | 1019.6 |
| 20260509190656 | 65 | 155 | 2.0 | 9.0 | 0.00 | 0.03 | 0.00 | 44 | 1019.5 |
| 20260509190154 | 65 | 311 | 2.0 | 7.0 | 0.00 | 0.03 | 0.00 | 47 | 1019.5 |
| 20260509185653 | 64 | 80 | 2.0 | 9.0 | 0.00 | 0.03 | 0.00 | 46 | 1019.5 |
| 20260509185153 | 64 | 323 | 2.0 | 9.0 | 0.00 | 0.03 | 0.00 | 47 | 1019.7 |
| 20260509184913 | 64 | 195 | 1.0 | 5.0 | 0.00 | 0.03 | 0.00 | 47 | 1019.6 |
| 20260509184138 | 63 | 96 | 2.0 | 10.0 | 0.00 | 0.03 | 0.00 | 49 | 1019.6 |
| 20260509183633 | 63 | 76 | 3.0 | 10.0 | 0.00 | 0.03 | 0.00 | 46 | 1019.5 |
| 20260509183134 | 63 | 182 | 4.0 | 9.0 | 0.00 | 0.03 | 0.00 | 47 | 1019.6 |
| 20260509182634 | 63 | 355 | 0.0 | 6.0 | 0.00 | 0.03 | 0.00 | 48 | 1019.5 |
| 20260509182134 | 63 | 288 | 1.0 | 6.0 | 0.00 | 0.03 | 0.00 | 49 | 1019.5 |
| 20260509181634 | 62 | 286 | 0.0 | 6.0 | 0.00 | 0.03 | 0.00 | 52 | 1019.6 |
| 20260509181350 | 62 | 335 | 1.0 | 7.0 | 0.00 | 0.03 | 0.00 | 51 | 1019.6 |
| 20260509180625 | 62 | 327 | 0.0 | 7.0 | 0.00 | 0.03 | 0.00 | 54 | 1019.7 |
| 20260509180125 | 62 | 196 | 4.0 | 9.0 | 0.00 | 0.03 | 0.00 | 51 | 1019.5 |
| 20260509175627 | 61 | 188 | 2.0 | 10.0 | 0.00 | 0.03 | 0.00 | 51 | 1019.6 |
| 20260509175124 | 61 | 203 | 2.0 | 10.0 | 0.00 | 0.03 | 0.00 | 54 | 1019.7 |
| 20260509174625 | 61 | 113 | 3.0 | 9.0 | 0.00 | 0.03 | 0.00 | 52 | 1019.6 |
| 20260509174124 | 61 | 167 | 2.0 | 10.0 | 0.00 | 0.03 | 0.00 | 53 | 1019.5 |
| 20260509173625 | 61 | 317 | 2.0 | 10.0 | 0.00 | 0.03 | 0.00 | 53 | 1019.6 |
| 20260509173125 | 61 | 119 | 2.0 | 8.0 | 0.00 | 0.03 | 0.00 | 56 | 1019.5 |
| 20260509172625 | 60 | 302 | 1.0 | 6.0 | 0.00 | 0.03 | 0.00 | 53 | 1019.7 |
| 20260509172121 | 60 | 80 | 1.0 | 6.0 | 0.00 | 0.03 | 0.00 | 55 | 1019.8 |
| 20260509171615 | 60 | 187 | 1.0 | 7.0 | 0.00 | 0.03 | 0.00 | 55 | 1019.7 |
| 20260509171116 | 59 | 242 | 1.0 | 8.0 | 0.00 | 0.03 | 0.00 | 56 | 1019.7 |
| 20260509170616 | 59 | 125 | 0.0 | 8.0 | 0.00 | 0.03 | 0.00 | 56 | 1019.7 |
| 20260509170116 | 58 | 34 | 0.0 | 5.0 | 0.00 | 0.03 | 0.00 | 62 | 1019.7 |
| 20260509165616 | 58 | 341 | 0.0 | 4.0 | 0.00 | 0.03 | 0.00 | 64 | 1019.6 |
| 20260509165111 | 57 | 125 | 0.0 | 3.0 | 0.00 | 0.03 | 0.00 | 63 | 1019.7 |
| 20260509165054 | 57 | 316 | 0.0 | 3.0 | 0.00 | 0.03 | 0.00 | 74 | 1019.7 |
| 20260509164327 | 57 | 67 | 0.0 | 3.0 | 0.00 | 0.03 | 0.00 | 79 | 1019.7 |
| 20260509163607 | 56 | 67 | 1.0 | 3.0 | 0.00 | 0.03 | 0.00 | 80 | 1019.8 |
| 20260509163107 | 56 | 138 | 0.0 | 3.0 | 0.00 | 0.03 | 0.00 | 85 | 1019.8 |
| 20260509162608 | 55 | 94 | 0.0 | 5.0 | 0.00 | 0.03 | 0.00 | 83 | 1019.7 |
| 20260509162102 | 54 | 267 | 0.0 | 7.0 | 0.00 | 0.03 | 0.00 | 87 | 1019.7 |
| 20260509161821 | 54 | 130 | 1.0 | 7.0 | 0.00 | 0.03 | 0.00 | 88 | 1019.8 |
| 20260509161103 | 53 | 103 | 1.0 | 3.0 | 0.00 | 0.03 | 0.00 | 91 | 1019.8 |
| 20260509160831 | 52 | 151 | 0.0 | 3.0 | 0.00 | 0.03 | 0.00 | 94 | 1019.8 |
| 20260509160059 | 52 | 151 | 0.0 | 4.0 | 0.00 | 0.03 | 0.00 | 96 | 1019.8 |
| 20260509155558 | 51 | 151 | 1.0 | 4.0 | 0.00 | 0.03 | 0.00 | 96 | 1019.8 |
| 20260509155054 | 51 | 209 | 1.0 | 3.0 | 0.00 | 0.03 | 0.00 | 97 | 1019.8 |
| 20260509154549 | 50 | 212 | 0.0 | 2.0 | 0.00 | 0.03 | 0.00 | 97 | 1019.8 |
| 20260509154049 | 50 | 212 | 0.0 | 2.0 | 0.00 | 0.03 | 0.00 | 97 | 1019.8 |
| 20260509153550 | 49 | 211 | 0.0 | 0.0 | 0.00 | 0.03 | 0.00 | 97 | 1019.8 |
| 20260509153543 | 49 | 211 | 0.0 | 0.0 | 0.00 | 0.03 | 0.00 | 98 | 1019.8 |
| 20260509152809 | 48 | 211 | 0.0 | 0.0 | 0.00 | 0.03 | 0.00 | 98 | 1019.8 |
| 20260509152052 | 48 | 211 | 0.0 | 0.0 | 0.00 | 0.03 | 0.00 | 98 | 1019.7 |
| 20260509151540 | 48 | 211 | 0.0 | 0.0 | 0.00 | 0.03 | 0.00 | 98 | 1019.7 |
| 20260509151032 | 47 | 211 | 0.0 | 0.0 | 0.00 | 0.03 | 0.00 | 98 | 1019.7 |
| 20260509150524 | 47 | 211 | 0.0 | 0.0 | 0.00 | 0.03 | 0.00 | 98 | 1019.7 |
| 20260509150025 | 47 | 211 | 0.0 | 0.0 | 0.00 | 0.03 | 0.00 | 98 | 1019.6 |
| 20260509145521 | 47 | 211 | 0.0 | 1.0 | 0.00 | 0.03 | 0.00 | 97 | 1019.6 |
| 20260509145015 | 47 | 211 | 0.0 | 1.0 | 0.00 | 0.03 | 0.00 | 98 | 1019.5 |
| 20260509144731 | 47 | 212 | 0.0 | 0.0 | 0.00 | 0.03 | 0.00 | 98 | 1019.5 |
| 20260509144000 | 46 | 212 | 0.0 | 1.0 | 0.00 | 0.03 | 0.00 | 98 | 1019.5 |
| 20260509143450 | 46 | 212 | 0.0 | 1.0 | 0.00 | 0.03 | 0.00 | 98 | 1019.4 |
| 20260509142953 | 46 | 212 | 0.0 | 0.0 | 0.00 | 0.03 | 0.00 | 98 | 1019.4 |
| 20260509142448 | 46 | 212 | 0.0 | 0.0 | 0.00 | 0.03 | 0.00 | 97 | 1019.3 |
| 20260509141925 | 45 | 212 | 0.0 | 0.0 | 0.00 | 0.03 | 0.00 | 97 | 1019.3 |
| 20260509141638 | 45 | 212 | 0.0 | 0.0 | 0.00 | 0.03 | 0.00 | 97 | 1019.3 |
| 20260509140916 | 45 | 212 | 0.0 | 0.0 | 0.00 | 0.03 | 0.00 | 97 | 1019.3 |
| 20260509140859 | 45 | 212 | 0.0 | 0.0 | 0.00 | 0.03 | 0.00 | 97 | 1019.2 |
| 20260509140131 | 44 | 212 | 0.0 | 0.0 | 0.00 | 0.03 | 0.00 | 97 | 1019.2 |
| 20260509135406 | 44 | 212 | 0.0 | 0.0 | 0.00 | 0.03 | 0.00 | 97 | 1019.1 |
| 20260509134901 | 44 | 212 | 0.0 | 0.0 | 0.00 | 0.03 | 0.00 | 97 | 1018.9 |
| 20260509134402 | 43 | 212 | 0.0 | 0.0 | 0.00 | 0.03 | 0.00 | 97 | 1018.9 |
| 20260509133904 | 43 | 212 | 0.0 | 0.0 | 0.00 | 0.03 | 0.00 | 97 | 1018.8 |
| 20260509133354 | 43 | 212 | 0.0 | 0.0 | 0.00 | 0.03 | 0.00 | 97 | 1018.8 |
| 20260509132847 | 43 | 212 | 0.0 | 0.0 | 0.00 | 0.03 | 0.00 | 96 | 1018.8 |
| 20260509132342 | 43 | 212 | 0.0 | 0.0 | 0.00 | 0.03 | 0.00 | 96 | 1018.7 |
| 20260509131842 | 42 | 212 | 0.0 | 0.0 | 0.00 | 0.03 | 0.00 | 96 | 1018.7 |
| 20260509131342 | 42 | 212 | 0.0 | 0.0 | 0.00 | 0.03 | 0.00 | 96 | 1018.6 |
| 20260509130842 | 42 | 212 | 0.0 | 0.0 | 0.00 | 0.03 | 0.00 | 96 | 1018.6 |
| 20260509130057 | 42 | 212 | 0.0 | 0.0 | 0.00 | 0.03 | 0.00 | 96 | 1018.4 |
| 20260509125333 | 42 | 212 | 0.0 | 0.0 | 0.00 | 0.03 | 0.00 | 96 | 1018.4 |
| 20260509124830 | 42 | 212 | 0.0 | 0.0 | 0.00 | 0.03 | 0.00 | 96 | 1018.4 |
| 20260509124550 | 42 | 212 | 0.0 | 0.0 | 0.00 | 0.03 | 0.00 | 95 | 1018.4 |
| 20260509123828 | 43 | 212 | 0.0 | 0.0 | 0.00 | 0.03 | 0.00 | 95 | 1018.3 |
| 20260509123324 | 43 | 212 | 0.0 | 0.0 | 0.00 | 0.03 | 0.00 | 95 | 1018.3 |
| 20260509122823 | 43 | 212 | 0.0 | 0.0 | 0.00 | 0.03 | 0.00 | 96 | 1018.2 |
| 20260509122318 | 43 | 212 | 0.0 | 0.0 | 0.00 | 0.03 | 0.00 | 96 | 1018.3 |
| 20260509121814 | 43 | 212 | 0.0 | 0.0 | 0.00 | 0.03 | 0.00 | 96 | 1018.3 |
| 20260509121317 | 44 | 212 | 0.0 | 0.0 | 0.00 | 0.03 | 0.00 | 96 | 1018.3 |
| 20260509120809 | 44 | 212 | 0.0 | 0.0 | 0.00 | 0.03 | 0.00 | 96 | 1018.2 |
| 20260509120300 | 44 | 212 | 0.0 | 0.0 | 0.00 | 0.03 | 0.00 | 96 | 1018.2 |
| 20260509115800 | 44 | 212 | 0.0 | 0.0 | 0.00 | 0.03 | 0.00 | 96 | 1018.1 |
| 20260509115258 | 44 | 212 | 0.0 | 0.0 | 0.00 | 0.03 | 0.00 | 96 | 1017.9 |
| 20260509114754 | 44 | 212 | 0.0 | 0.0 | 0.00 | 0.03 | 0.00 | 96 | 1017.9 |
| 20260509114240 | 44 | 212 | 0.0 | 0.0 | 0.00 | 0.03 | 0.00 | 96 | 1018.1 |
| 20260509113730 | 44 | 212 | 0.0 | 0.0 | 0.00 | 0.03 | 0.00 | 96 | 1017.9 |
| 20260509113450 | 44 | 212 | 0.0 | 0.0 | 0.00 | 0.03 | 0.00 | 96 | 1017.8 |
| 20260509112731 | 44 | 212 | 0.0 | 0.0 | 0.00 | 0.03 | 0.00 | 96 | 1017.8 |
| 20260509112446 | 44 | 212 | 0.0 | 0.0 | 0.00 | 0.03 | 0.00 | 96 | 1017.8 |
| 20260509111943 | 44 | 212 | 0.0 | 0.0 | 0.00 | 0.03 | 0.00 | 96 | 1017.7 |
| 20260509111220 | 44 | 212 | 0.0 | 0.0 | 0.00 | 0.03 | 0.00 | 96 | 1017.7 |
| 20260509110716 | 44 | 212 | 0.0 | 0.0 | 0.00 | 0.03 | 0.00 | 96 | 1017.6 |
| 20260509110213 | 44 | 212 | 0.0 | 0.0 | 0.00 | 0.03 | 0.00 | 96 | 1017.6 |
| 20260509105711 | 44 | 212 | 0.0 | 0.0 | 0.00 | 0.03 | 0.00 | 96 | 1017.6 |
| 20260509105435 | 44 | 212 | 0.0 | 0.0 | 0.00 | 0.03 | 0.00 | 96 | 1017.5 |
| 20260509104710 | 44 | 212 | 0.0 | 0.0 | 0.00 | 0.03 | 0.00 | 96 | 1017.5 |
| 20260509104213 | 44 | 212 | 0.0 | 0.0 | 0.00 | 0.03 | 0.00 | 95 | 1017.5 |
| 20260509103928 | 44 | 212 | 0.0 | 0.0 | 0.00 | 0.03 | 0.00 | 95 | 1017.4 |
| 20260509103202 | 44 | 212 | 0.0 | 0.0 | 0.00 | 0.03 | 0.00 | 95 | 1017.5 |
| 20260509102914 | 45 | 212 | 0.0 | 0.0 | 0.00 | 0.03 | 0.00 | 95 | 1017.4 |
| 20260509102357 | 45 | 212 | 0.0 | 0.0 | 0.00 | 0.03 | 0.00 | 95 | 1017.4 |
| 20260509101637 | 45 | 212 | 0.0 | 0.0 | 0.00 | 0.03 | 0.00 | 95 | 1017.3 |
| 20260509101136 | 45 | 212 | 0.0 | 0.0 | 0.00 | 0.03 | 0.00 | 95 | 1017.3 |
| 20260509100632 | 45 | 212 | 0.0 | 0.0 | 0.00 | 0.03 | 0.00 | 95 | 1017.2 |
| 20260509100132 | 45 | 212 | 0.0 | 0.0 | 0.00 | 0.03 | 0.00 | 95 | 1017.3 |
| 20260509095635 | 45 | 212 | 0.0 | 0.0 | 0.00 | 0.03 | 0.00 | 95 | 1017.2 |
| 20260509095123 | 45 | 212 | 0.0 | 0.0 | 0.00 | 0.03 | 0.00 | 95 | 1017.2 |
| 20260509094623 | 45 | 212 | 0.0 | 0.0 | 0.00 | 0.03 | 0.00 | 95 | 1017.0 |
| 20260509094344 | 45 | 212 | 0.0 | 0.0 | 0.00 | 0.03 | 0.00 | 95 | 1017.0 |
| 20260509094222 | 45 | 212 | 0.0 | 0.0 | 0.00 | 0.03 | 0.00 | 95 | 1017.0 |
| 20260509093121 | 45 | 212 | 0.0 | 0.0 | 0.00 | 0.03 | 0.00 | 95 | 1017.0 |
| 20260509092619 | 45 | 212 | 0.0 | 0.0 | 0.00 | 0.03 | 0.00 | 95 | 1016.9 |
| 20260509092118 | 45 | 212 | 0.0 | 0.0 | 0.00 | 0.03 | 0.00 | 95 | 1016.9 |
| 20260509091604 | 46 | 212 | 0.0 | 0.0 | 0.00 | 0.03 | 0.00 | 95 | 1016.9 |
| 20260509091550 | 46 | 212 | 0.0 | 0.0 | 0.00 | 0.03 | 0.00 | 95 | 1016.9 |
| 20260509090603 | 46 | 212 | 0.0 | 0.0 | 0.00 | 0.03 | 0.00 | 95 | 1016.9 |
| 20260509090322 | 46 | 212 | 0.0 | 0.0 | 0.00 | 0.03 | 0.00 | 95 | 1016.8 |
| 20260509085604 | 46 | 212 | 0.0 | 0.0 | 0.00 | 0.03 | 0.00 | 95 | 1016.7 |
| 20260509085324 | 46 | 212 | 0.0 | 0.0 | 0.00 | 0.03 | 0.00 | 95 | 1016.8 |
| 20260509085048 | 46 | 212 | 0.0 | 0.0 | 0.00 | 0.03 | 0.00 | 95 | 1016.7 |
| 20260509084055 | 46 | 212 | 0.0 | 0.0 | 0.00 | 0.03 | 0.00 | 95 | 1016.7 |
| 20260509083801 | 46 | 212 | 0.0 | 0.0 | 0.00 | 0.03 | 0.00 | 95 | 1016.7 |
| 20260509083034 | 47 | 212 | 0.0 | 0.0 | 0.00 | 0.03 | 0.00 | 95 | 1016.7 |
| 20260509082530 | 47 | 212 | 0.0 | 0.0 | 0.00 | 0.03 | 0.00 | 95 | 1016.8 |
| 20260509082027 | 47 | 212 | 0.0 | 0.0 | 0.00 | 0.03 | 0.00 | 95 | 1016.8 |
| 20260509081525 | 47 | 212 | 0.0 | 0.0 | 0.00 | 0.03 | 0.00 | 95 | 1016.7 |
| 20260509081015 | 47 | 212 | 0.0 | 0.0 | 0.00 | 0.03 | 0.00 | 95 | 1016.8 |
| 20260509080724 | 47 | 212 | 0.0 | 0.0 | 0.00 | 0.03 | 0.00 | 95 | 1016.7 |
| 20260509075956 | 47 | 212 | 0.0 | 0.0 | 0.00 | 0.03 | 0.00 | 95 | 1016.7 |
| 20260509075450 | 47 | 212 | 0.0 | 0.0 | 0.00 | 0.03 | 0.00 | 95 | 1016.7 |
| 20260509074951 | 47 | 212 | 0.0 | 0.0 | 0.00 | 0.03 | 0.00 | 95 | 1016.7 |
| 20260509074450 | 48 | 212 | 0.0 | 0.0 | 0.00 | 0.03 | 0.00 | 95 | 1016.7 |
| 20260509073951 | 48 | 212 | 0.0 | 0.0 | 0.00 | 0.03 | 0.00 | 95 | 1016.7 |
| 20260509073446 | 48 | 212 | 0.0 | 0.0 | 0.00 | 0.03 | 0.00 | 95 | 1016.7 |
| 20260509072941 | 48 | 212 | 0.0 | 0.0 | 0.00 | 0.03 | 0.00 | 95 | 1016.8 |
| 20260509072917 | 48 | 212 | 0.0 | 0.0 | 0.00 | 0.03 | 0.00 | 95 | 1016.7 |
| 20260509071932 | 48 | 212 | 0.0 | 0.0 | 0.00 | 0.03 | 0.00 | 95 | 1016.7 |
| 20260509071433 | 48 | 212 | 0.0 | 0.0 | 0.00 | 0.03 | 0.00 | 95 | 1016.8 |
| 20260509071428 | 48 | 212 | 0.0 | 0.0 | 0.00 | 0.03 | 0.00 | 95 | 1016.8 |
| 20260509070427 | 48 | 212 | 0.0 | 0.0 | 0.00 | 0.03 | 0.00 | 95 | 1016.7 |
| 20260509065918 | 48 | 212 | 0.0 | 0.0 | 0.00 | 0.03 | 0.00 | 95 | 1016.7 |
| 20260509065418 | 48 | 212 | 0.0 | 0.0 | 0.00 | 0.03 | 0.00 | 95 | 1016.7 |
| 20260509065134 | 48 | 212 | 0.0 | 0.0 | 0.00 | 0.03 | 0.00 | 95 | 1016.7 |
| 20260509064408 | 48 | 212 | 0.0 | 0.0 | 0.00 | 0.03 | 0.00 | 95 | 1016.6 |
| 20260509063903 | 49 | 212 | 0.0 | 0.0 | 0.00 | 0.03 | 0.00 | 95 | 1016.6 |
| 20260509063403 | 49 | 212 | 0.0 | 0.0 | 0.00 | 0.03 | 0.00 | 95 | 1016.7 |
| 20260509062906 | 49 | 212 | 0.0 | 0.0 | 0.00 | 0.03 | 0.00 | 95 | 1016.7 |
| 20260509062850 | 49 | 212 | 0.0 | 0.0 | 0.00 | 0.03 | 0.00 | 95 | 1016.6 |
| 20260509061854 | 49 | 212 | 0.0 | 0.0 | 0.00 | 0.03 | 0.00 | 95 | 1016.6 |
| 20260509061353 | 49 | 212 | 0.0 | 2.0 | 0.00 | 0.03 | 0.00 | 95 | 1016.5 |
| 20260509060854 | 49 | 212 | 0.0 | 3.0 | 0.00 | 0.03 | 0.00 | 95 | 1016.6 |
| 20260509060344 | 49 | 212 | 0.0 | 2.0 | 0.00 | 0.03 | 0.00 | 95 | 1016.6 |
| 20260509055844 | 49 | 211 | 0.0 | 0.0 | 0.00 | 0.03 | 0.03 | 95 | 1016.6 |
| 20260509055340 | 49 | 211 | 0.0 | 0.0 | 0.00 | 0.03 | 0.03 | 95 | 1016.6 |
| 20260509054839 | 49 | 211 | 0.0 | 0.0 | 0.00 | 0.03 | 0.03 | 95 | 1016.6 |
| 20260509054343 | 49 | 211 | 0.0 | 0.0 | 0.00 | 0.03 | 0.03 | 95 | 1016.5 |
| 20260509053830 | 49 | 211 | 0.0 | 0.0 | 0.00 | 0.03 | 0.03 | 95 | 1016.5 |
| 20260509053319 | 49 | 211 | 0.0 | 0.0 | 0.00 | 0.03 | 0.03 | 94 | 1016.4 |
| 20260509052821 | 49 | 211 | 0.0 | 0.0 | 0.00 | 0.03 | 0.03 | 94 | 1016.4 |
| 20260509052318 | 49 | 211 | 0.0 | 0.0 | 0.00 | 0.03 | 0.03 | 94 | 1016.4 |
| 20260509052131 | 49 | 211 | 0.0 | 0.0 | 0.00 | 0.03 | 0.03 | 94 | 1016.3 |
| 20260509052027 | 49 | 211 | 0.0 | 0.0 | 0.00 | 0.03 | 0.03 | 94 | 1016.4 |
| 20260509051029 | 49 | 211 | 0.0 | 0.0 | 0.00 | 0.03 | 0.03 | 94 | 1016.4 |
| 20260509050302 | 49 | 211 | 0.0 | 0.0 | 0.00 | 0.03 | 0.03 | 94 | 1016.4 |
| 20260509045803 | 49 | 211 | 0.0 | 0.0 | 0.00 | 0.03 | 0.03 | 94 | 1016.3 |
| 20260509045256 | 49 | 211 | 0.0 | 0.0 | 0.00 | 0.03 | 0.03 | 94 | 1016.3 |
| 20260509045021 | 49 | 211 | 0.0 | 1.0 | 0.00 | 0.03 | 0.03 | 94 | 1016.0 |
| 20260509044507 | 50 | 211 | 0.0 | 1.0 | 0.00 | 0.03 | 0.03 | 94 | 1016.2 |
| 20260509043742 | 50 | 212 | 0.0 | 0.0 | 0.00 | 0.03 | 0.03 | 94 | 1016.0 |
| 20260509043242 | 50 | 212 | 0.0 | 0.0 | 0.00 | 0.03 | 0.03 | 94 | 1016.2 |
| 20260509043002 | 50 | 212 | 0.0 | 0.0 | 0.00 | 0.03 | 0.03 | 93 | 1016.2 |
| 20260509042242 | 50 | 212 | 0.0 | 0.0 | 0.00 | 0.03 | 0.03 | 93 | 1016.0 |
| 20260509041733 | 50 | 212 | 0.0 | 1.0 | 0.00 | 0.03 | 0.03 | 93 | 1016.0 |
| 20260509041230 | 50 | 212 | 0.0 | 1.0 | 0.00 | 0.03 | 0.03 | 93 | 1015.9 |
| 20260509040728 | 50 | 212 | 0.0 | 0.0 | 0.00 | 0.03 | 0.03 | 93 | 1015.9 |
| 20260509040223 | 50 | 212 | 0.0 | 0.0 | 0.00 | 0.03 | 0.03 | 93 | 1015.9 |
| 20260509035723 | 50 | 212 | 0.0 | 0.0 | 0.00 | 0.03 | 0.03 | 93 | 1015.9 |
| 20260509035223 | 50 | 212 | 0.0 | 0.0 | 0.00 | 0.03 | 0.03 | 93 | 1015.8 |
| 20260509034718 | 51 | 212 | 0.0 | 0.0 | 0.00 | 0.03 | 0.03 | 93 | 1015.9 |
| 20260509034432 | 51 | 212 | 0.0 | 0.0 | 0.00 | 0.03 | 0.03 | 93 | 1015.8 |
| 20260509033934 | 51 | 212 | 0.0 | 0.0 | 0.00 | 0.03 | 0.03 | 92 | 1015.8 |
| 20260509033212 | 51 | 212 | 0.0 | 0.0 | 0.00 | 0.03 | 0.03 | 92 | 1015.8 |
| 20260509032654 | 51 | 212 | 0.0 | 0.0 | 0.00 | 0.03 | 0.03 | 92 | 1015.7 |
| 20260509032154 | 51 | 212 | 0.0 | 0.0 | 0.00 | 0.03 | 0.03 | 92 | 1015.6 |
| 20260509031656 | 51 | 212 | 0.0 | 0.0 | 0.00 | 0.03 | 0.03 | 91 | 1015.6 |
| 20260509031154 | 51 | 212 | 0.0 | 0.0 | 0.00 | 0.03 | 0.03 | 91 | 1015.5 |
| 20260509030651 | 51 | 212 | 0.0 | 0.0 | 0.00 | 0.03 | 0.03 | 91 | 1015.4 |
| 20260509030140 | 51 | 212 | 0.0 | 0.0 | 0.00 | 0.03 | 0.03 | 91 | 1015.3 |
| 20260509025901 | 52 | 212 | 0.0 | 0.0 | 0.00 | 0.03 | 0.03 | 91 | 1015.1 |
| 20260509025124 | 52 | 212 | 0.0 | 2.0 | 0.00 | 0.03 | 0.03 | 91 | 1015.0 |
| 20260509024851 | 52 | 212 | 0.0 | 2.0 | 0.00 | 0.03 | 0.03 | 90 | 1015.0 |
| 20260509024110 | 52 | 212 | 0.0 | 0.0 | 0.00 | 0.03 | 0.03 | 90 | 1014.8 |
| 20260509023604 | 52 | 212 | 0.0 | 0.0 | 0.00 | 0.03 | 0.03 | 90 | 1014.8 |
| 20260509023054 | 53 | 212 | 0.0 | 0.0 | 0.00 | 0.03 | 0.03 | 89 | 1014.8 |
| 20260509022555 | 53 | 212 | 0.0 | 0.0 | 0.00 | 0.03 | 0.03 | 89 | 1014.8 |
| 20260509022339 | 53 | 212 | 0.0 | 0.0 | 0.00 | 0.03 | 0.03 | 88 | 1014.7 |
| 20260509021540 | 53 | 212 | 0.0 | 0.0 | 0.02 | 0.03 | 0.03 | 88 | 1014.7 |
| 20260509021306 | 53 | 212 | 0.0 | 0.0 | 0.03 | 0.03 | 0.03 | 87 | 1014.7 |
| 20260509020535 | 54 | 212 | 0.0 | 0.0 | 0.03 | 0.03 | 0.03 | 87 | 1014.7 |
| 20260509020031 | 54 | 212 | 0.0 | 0.0 | 0.03 | 0.03 | 0.03 | 87 | 1014.7 |
| 20260509015521 | 54 | 212 | 0.0 | 6.0 | 0.03 | 0.03 | 0.03 | 85 | 1014.7 |
| 20260509015458 | 55 | 212 | 2.0 | 6.0 | 0.03 | 0.03 | 0.03 | 86 | 1014.7 |
| 20260509014510 | 55 | 254 | 0.0 | 0.0 | 0.03 | 0.03 | 0.03 | 85 | 1014.7 |
| 20260509014010 | 55 | 254 | 0.0 | 0.0 | 0.03 | 0.03 | 0.03 | 85 | 1014.7 |
| 20260509013510 | 56 | 254 | 0.0 | 0.0 | 0.03 | 0.03 | 0.03 | 84 | 1014.7 |
| 20260509013229 | 56 | 254 | 0.0 | 2.0 | 0.03 | 0.03 | 0.03 | 83 | 1014.6 |
| 20260509012508 | 56 | 254 | 0.0 | 2.0 | 0.03 | 0.03 | 0.03 | 83 | 1014.4 |
| 20260509012221 | 57 | 256 | 0.0 | 1.0 | 0.03 | 0.03 | 0.03 | 81 | 1014.1 |
| 20260509011733 | 57 | 256 | 0.0 | 1.0 | 0.01 | 0.01 | 0.01 | 78 | 1014.3 |
| 20260509010947 | 57 | 261 | 0.0 | 0.0 | 0.00 | 0.00 | 0.00 | 75 | 1014.6 |
| 20260509010436 | 57 | 261 | 0.0 | 0.0 | 0.00 | 0.00 | 0.00 | 74 | 1014.4 |
| 20260509005926 | 57 | 261 | 0.0 | 0.0 | 0.00 | 0.00 | 0.00 | 73 | 1013.8 |
| 20260509005426 | 58 | 261 | 0.0 | 0.0 | 0.00 | 0.00 | 0.00 | 72 | 1013.7 |
| 20260509004926 | 58 | 261 | 0.0 | 0.0 | 0.00 | 0.00 | 0.00 | 69 | 1013.7 |
| 20260509004428 | 58 | 261 | 0.0 | 0.0 | 0.00 | 0.00 | 0.00 | 70 | 1013.7 |
| 20260509003928 | 58 | 261 | 0.0 | 0.0 | 0.00 | 0.00 | 0.00 | 70 | 1013.7 |
| 20260509003417 | 58 | 261 | 0.0 | 0.0 | 0.00 | 0.00 | 0.00 | 70 | 1013.7 |
| 20260509002917 | 58 | 261 | 0.0 | 0.0 | 0.00 | 0.00 | 0.00 | 67 | 1013.5 |
| 20260509002412 | 58 | 261 | 0.0 | 0.0 | 0.00 | 0.00 | 0.00 | 67 | 1013.5 |
| 20260509001916 | 58 | 261 | 0.0 | 0.0 | 0.00 | 0.00 | 0.00 | 70 | 1013.4 |
| 20260509001347 | 58 | 261 | 0.0 | 0.0 | 0.00 | 0.00 | 0.00 | 69 | 1013.4 |
| 20260509000847 | 58 | 261 | 0.0 | 0.0 | 0.00 | 0.00 | 0.00 | 67 | 1013.3 |
| 20260509000349 | 58 | 261 | 0.0 | 2.0 | 0.00 | 0.00 | 0.00 | 68 | 1013.3 |
| 20260508235848 | 58 | 261 | 0.0 | 2.0 | 0.00 | 0.00 | 0.00 | 67 | 1013.4 |
| 20260508235348 | 58 | 316 | 0.0 | 2.0 | 0.00 | 0.00 | 0.00 | 69 | 1013.6 |
| 20260508234849 | 58 | 291 | 0.0 | 1.0 | 0.00 | 0.00 | 0.00 | 68 | 1013.5 |
| 20260508234343 | 58 | 291 | 0.0 | 5.0 | 0.00 | 0.00 | 0.00 | 65 | 1013.4 |
| 20260508233839 | 58 | 287 | 0.0 | 5.0 | 0.00 | 0.00 | 0.00 | 67 | 1013.3 |
| 20260508233339 | 59 | 309 | 0.0 | 3.0 | 0.00 | 0.00 | 0.00 | 65 | 1013.3 |
| 20260508232839 | 59 | 295 | 0.0 | 4.0 | 0.00 | 0.00 | 0.00 | 66 | 1013.4 |
| 20260508232603 | 60 | 296 | 0.0 | 4.0 | 0.00 | 0.00 | 0.00 | 63 | 1013.4 |
| 20260508232053 | 61 | 314 | 0.0 | 7.0 | 0.00 | 0.00 | 0.00 | 63 | 1013.5 |
| 20260508231329 | 62 | 89 | 0.0 | 11.0 | 0.00 | 0.00 | 0.00 | 60 | 1013.7 |
| 20260508230824 | 64 | 329 | 4.0 | 11.0 | 0.00 | 0.00 | 0.00 | 56 | 1013.8 |
| 20260508230320 | 65 | 315 | 1.0 | 10.0 | 0.00 | 0.00 | 0.00 | 52 | 1013.7 |
| 20260508225814 | 67 | 324 | 1.0 | 10.0 | 0.00 | 0.00 | 0.00 | 51 | 1013.6 |
| 20260508225314 | 67 | 53 | 0.0 | 1.0 | 0.00 | 0.00 | 0.00 | 54 | 1013.3 |
| 20260508225040 | 67 | 53 | 0.0 | 3.0 | 0.00 | 0.00 | 0.00 | 49 | 1012.9 |
| 20260508224310 | 67 | 52 | 0.0 | 4.0 | 0.00 | 0.00 | 0.00 | 52 | 1012.8 |
| 20260508223806 | 68 | 57 | 0.0 | 6.0 | 0.00 | 0.00 | 0.00 | 49 | 1012.8 |
| 20260508223301 | 68 | 309 | 1.0 | 6.0 | 0.00 | 0.00 | 0.00 | 50 | 1012.8 |
| 20260508223025 | 68 | 24 | 0.0 | 4.0 | 0.00 | 0.00 | 0.00 | 51 | 1012.8 |
| 20260508222245 | 67 | 161 | 0.0 | 4.0 | 0.00 | 0.00 | 0.00 | 50 | 1012.8 |
| 20260508221747 | 67 | 115 | 1.0 | 4.0 | 0.00 | 0.00 | 0.00 | 49 | 1012.8 |
| 20260508221246 | 67 | 43 | 0.0 | 4.0 | 0.00 | 0.00 | 0.00 | 53 | 1012.9 |
| 20260508220749 | 67 | 288 | 0.0 | 4.0 | 0.00 | 0.00 | 0.00 | 51 | 1012.9 |
| 20260508220247 | 67 | 100 | 0.0 | 7.0 | 0.00 | 0.00 | 0.00 | 52 | 1013.0 |
| 20260508215746 | 67 | 323 | 0.0 | 7.0 | 0.00 | 0.00 | 0.00 | 51 | 1013.1 |
| 20260508215242 | 67 | 55 | 0.0 | 3.0 | 0.00 | 0.00 | 0.00 | 52 | 1013.1 |
| 20260508214742 | 67 | 100 | 0.0 | 7.0 | 0.00 | 0.00 | 0.00 | 50 | 1013.3 |
| 20260508214241 | 67 | 253 | 2.0 | 7.0 | 0.00 | 0.00 | 0.00 | 50 | 1013.4 |